AXB2C VIDP-VAHS

Flight info

Callsign AXB2C
Flight time 1h 26m
Altitude 36000
Route DUDUM7G DUDUM A474 NIKOT Q5 UUD W58 AAE W62 HSR
Aircraft B738/M-SDE2E3FGHIRWXY/LB1

Departure

Time 2026-05-07 03:02
Airport Indira Gandhi International Airport (VIDP)

Arrival

Time 2026-05-07 04:29
Airport Rajkot International Airport (VAHS)
Time Latitude Longitude Altitude Speed Heading
2026-05-07 02:48 28.55233 77.08591 746 ft 0 kts
2026-05-07 02:53 28.55225 77.08589 746 ft 3 kts
2026-05-07 02:53 28.55212 77.08587 749 ft 3 kts 11°
2026-05-07 02:53 28.55192 77.08582 747 ft 3 kts 12°
2026-05-07 02:53 28.55173 77.08578 747 ft 3 kts
2026-05-07 02:54 28.55156 77.08580 745 ft 3 kts 314°
2026-05-07 02:54 28.55152 77.08587 748 ft 1 kts 285°
2026-05-07 02:54 28.55151 77.08590 748 ft 0 kts 285°
2026-05-07 02:55 28.55151 77.08589 748 ft 0 kts 285°
2026-05-07 02:55 28.55154 77.08576 745 ft 3 kts 284°
2026-05-07 02:56 28.55161 77.08538 750 ft 7 kts 273°
2026-05-07 02:56 28.55142 77.08478 747 ft 10 kts 241°
2026-05-07 02:56 28.55103 77.08401 750 ft 13 kts 239°
2026-05-07 02:56 28.55038 77.08326 750 ft 15 kts 195°
2026-05-07 02:57 28.54942 77.08276 746 ft 16 kts 238°
2026-05-07 02:57 28.54954 77.08144 750 ft 19 kts 285°
2026-05-07 02:57 28.54988 77.07991 748 ft 21 kts 285°
2026-05-07 02:57 28.55027 77.07823 750 ft 23 kts 284°
2026-05-07 02:58 28.55069 77.07639 751 ft 25 kts 284°
2026-05-07 02:58 28.55116 77.07438 748 ft 27 kts 284°
2026-05-07 02:58 28.55166 77.07221 750 ft 29 kts 285°
2026-05-07 02:58 28.55203 77.07060 747 ft 0 kts 284°
2026-05-07 02:59 28.55205 77.07054 748 ft 2 kts 284°
2026-05-07 02:59 28.55210 77.07023 750 ft 6 kts 275°
2026-05-07 02:59 28.55179 77.06974 749 ft 11 kts 203°
2026-05-07 03:00 28.55081 77.06946 744 ft 18 kts 193°
2026-05-07 03:00 28.54943 77.06909 746 ft 22 kts 193°
2026-05-07 03:00 28.54778 77.06865 749 ft 26 kts 194°
2026-05-07 03:00 28.54643 77.06897 748 ft 3 kts 107°
2026-05-07 03:01 28.54643 77.06900 749 ft 0 kts 103°
2026-05-07 03:01 28.54642 77.06905 749 ft 6 kts 104°
2026-05-07 03:02 28.54574 77.07221 749 ft 76 kts 104°
2026-05-07 03:02 28.54396 77.08050 749 ft 137 kts 103°
2026-05-07 03:02 28.54121 77.09271 906 ft 173 kts 106°
2026-05-07 03:02 28.53781 77.10622 1631 ft 183 kts 108°
2026-05-07 03:03 28.53439 77.12138 1920 ft 210 kts 112°
2026-05-07 03:03 28.52520 77.13385 2423 ft 211 kts 150°
2026-05-07 03:03 28.51062 77.13892 2653 ft 236 kts 177°
2026-05-07 03:03 28.49368 77.13660 3082 ft 252 kts 189°
2026-05-07 03:04 28.47619 77.13228 3659 ft 261 kts 190°
2026-05-07 03:04 28.45837 77.12777 3987 ft 268 kts 190°
2026-05-07 03:04 28.44016 77.12321 4216 ft 267 kts 189°
2026-05-07 03:04 28.42173 77.11864 4746 ft 276 kts 190°
2026-05-07 03:05 28.40273 77.11396 5401 ft 282 kts 192°
2026-05-07 03:05 28.38327 77.10921 6011 ft 290 kts 193°
2026-05-07 03:05 28.36330 77.10436 6594 ft 292 kts 194°
2026-05-07 03:05 28.34340 77.09955 6841 ft 294 kts 194°
2026-05-07 03:06 28.32354 77.09459 6855 ft 289 kts 198°
2026-05-07 03:06 28.30635 77.08403 6887 ft 280 kts 223°
2026-05-07 03:06 28.29216 77.06892 7273 ft 281 kts 227°
2026-05-07 03:06 28.27833 77.05340 8035 ft 280 kts 227°
2026-05-07 03:07 28.26442 77.03764 8712 ft 284 kts 227°
2026-05-07 03:07 28.25059 77.02200 9444 ft 285 kts 228°
2026-05-07 03:07 28.23631 77.00592 10141 ft 288 kts 228°
2026-05-07 03:07 28.22220 76.99004 10332 ft 309 kts 228°
2026-05-07 03:08 28.20648 76.97241 10654 ft 323 kts 228°
2026-05-07 03:08 28.19035 76.95441 11259 ft 327 kts 228°
2026-05-07 03:08 28.17405 76.93628 11965 ft 329 kts 228°
2026-05-07 03:08 28.15768 76.91807 12657 ft 331 kts 228°
2026-05-07 03:09 28.14117 76.89972 13351 ft 334 kts 229°
2026-05-07 03:09 28.12451 76.88120 14014 ft 337 kts 229°
2026-05-07 03:09 28.10770 76.86252 14612 ft 341 kts 229°
2026-05-07 03:09 28.09066 76.84359 15227 ft 346 kts 229°
2026-05-07 03:10 28.07337 76.82439 15831 ft 350 kts 229°
2026-05-07 03:10 28.05586 76.80496 16443 ft 354 kts 229°
2026-05-07 03:10 28.03814 76.78531 17053 ft 359 kts 229°
2026-05-07 03:10 28.02021 76.76547 17644 ft 363 kts 229°
2026-05-07 03:11 28.00196 76.74531 18195 ft 369 kts 229°
2026-05-07 03:11 27.98350 76.72495 18722 ft 372 kts 229°
2026-05-07 03:11 27.96492 76.70448 19322 ft 373 kts 229°
2026-05-07 03:11 27.94628 76.68395 19903 ft 376 kts 229°
2026-05-07 03:12 27.92752 76.66328 20454 ft 378 kts 229°
2026-05-07 03:12 27.90857 76.64241 21000 ft 381 kts 229°
2026-05-07 03:12 27.88951 76.62142 21526 ft 384 kts 229°
2026-05-07 03:12 27.87033 76.60031 22067 ft 387 kts 229°
2026-05-07 03:13 27.85098 76.57903 22587 ft 389 kts 229°
2026-05-07 03:13 27.83150 76.55760 23096 ft 392 kts 229°
2026-05-07 03:13 27.81184 76.53601 23590 ft 395 kts 229°
2026-05-07 03:13 27.79161 76.51505 23998 ft 401 kts 223°
2026-05-07 03:14 27.76869 76.49673 24395 ft 406 kts 219°
2026-05-07 03:14 27.74497 76.47939 24757 ft 411 kts 218°
2026-05-07 03:14 27.69699 76.44465 25603 ft 414 kts 218°
2026-05-07 03:15 27.67287 76.42682 26002 ft 416 kts 219°
2026-05-07 03:15 27.64874 76.40876 26399 ft 418 kts 219°
2026-05-07 03:15 27.62451 76.39050 26795 ft 419 kts 219°
2026-05-07 03:15 27.60028 76.37220 27199 ft 421 kts 219°
2026-05-07 03:16 27.57588 76.35380 27522 ft 424 kts 219°
2026-05-07 03:16 27.55122 76.33523 27868 ft 427 kts 220°
2026-05-07 03:16 27.52649 76.31663 28228 ft 429 kts 220°
2026-05-07 03:16 27.50137 76.29823 28586 ft 432 kts 218°
2026-05-07 03:17 27.47568 76.28042 28924 ft 435 kts 217°
2026-05-07 03:17 27.44967 76.26275 29053 ft 439 kts 217°
2026-05-07 03:17 27.42342 76.24507 29448 ft 439 kts 217°
2026-05-07 03:17 27.39721 76.22738 29842 ft 440 kts 217°
2026-05-07 03:18 27.37094 76.20952 30079 ft 442 kts 218°
2026-05-07 03:18 27.34457 76.19150 30306 ft 445 kts 218°
2026-05-07 03:18 27.31810 76.17339 30607 ft 446 kts 218°
2026-05-07 03:18 27.29157 76.15522 30861 ft 447 kts 218°
2026-05-07 03:19 27.26496 76.13701 31068 ft 450 kts 218°
2026-05-07 03:19 27.23809 76.11862 31278 ft 453 kts 218°
2026-05-07 03:19 27.21118 76.10020 31523 ft 454 kts 218°
2026-05-07 03:19 27.18419 76.08177 31794 ft 454 kts 218°
2026-05-07 03:20 27.15713 76.06328 32031 ft 455 kts 218°
2026-05-07 03:20 27.13010 76.04483 32233 ft 457 kts 218°
2026-05-07 03:20 27.10292 76.02630 32499 ft 457 kts 218°
2026-05-07 03:20 27.07576 76.00781 32832 ft 456 kts 218°
2026-05-07 03:21 27.04954 75.98995 32949 ft 459 kts 218°
2026-05-07 03:21 26.99444 75.95237 33015 ft 469 kts 218°
2026-05-07 03:22 26.93845 75.91429 33095 ft 476 kts 218°
2026-05-07 03:22 26.88147 75.87562 33154 ft 481 kts 218°
2026-05-07 03:23 26.82425 75.83748 33311 ft 484 kts 214°
2026-05-07 03:23 26.79319 75.82209 33439 ft 491 kts 208°
2026-05-07 03:23 26.76120 75.80861 33556 ft 491 kts 207°
2026-05-07 03:24 26.69670 75.78244 33804 ft 489 kts 208°
2026-05-07 03:24 26.66493 75.76947 34268 ft 481 kts 208°
2026-05-07 03:24 26.63395 75.75669 34929 ft 467 kts 209°
2026-05-07 03:24 26.60390 75.74417 35529 ft 456 kts 210°
2026-05-07 03:25 26.57435 75.73171 35812 ft 454 kts 210°
2026-05-07 03:25 26.51484 75.70633 35863 ft 462 kts 210°
2026-05-07 03:26 26.45416 75.68052 35868 ft 471 kts 210°
2026-05-07 03:26 26.39232 75.65440 35866 ft 479 kts 209°
2026-05-07 03:27 26.32953 75.62799 35854 ft 484 kts 209°
2026-05-07 03:27 26.26620 75.60138 35859 ft 488 kts 209°
2026-05-07 03:28 26.20254 75.57465 35847 ft 490 kts 209°
2026-05-07 03:28 26.13879 75.54792 35846 ft 488 kts 209°
2026-05-07 03:29 26.07587 75.52156 35846 ft 485 kts 209°
2026-05-07 03:29 26.01271 75.49509 35848 ft 485 kts 209°
2026-05-07 03:30 25.94981 75.46877 35864 ft 484 kts 209°
2026-05-07 03:30 25.88915 75.43817 35858 ft 469 kts 222°
2026-05-07 03:31 25.84080 75.39201 35851 ft 451 kts 236°
2026-05-07 03:31 25.79929 75.33965 35830 ft 451 kts 236°
2026-05-07 03:32 25.75763 75.28743 35842 ft 452 kts 236°
2026-05-07 03:32 25.71574 75.23545 35847 ft 452 kts 236°
2026-05-07 03:33 25.67364 75.18347 35847 ft 453 kts 235°
2026-05-07 03:33 25.63160 75.13165 35847 ft 453 kts 235°
2026-05-07 03:34 25.58943 75.07970 35850 ft 453 kts 235°
2026-05-07 03:34 25.54725 75.02780 35843 ft 453 kts 235°
2026-05-07 03:35 25.50622 74.97736 35852 ft 454 kts 235°
2026-05-07 03:35 25.46369 74.92514 35824 ft 454 kts 235°
2026-05-07 03:36 25.42146 74.87336 35838 ft 454 kts 235°
2026-05-07 03:36 25.37944 74.82188 35853 ft 454 kts 235°
2026-05-07 03:37 25.33712 74.77009 35854 ft 454 kts 235°
2026-05-07 03:37 25.29475 74.71829 35861 ft 454 kts 235°
2026-05-07 03:38 25.25237 74.66654 35860 ft 454 kts 235°
2026-05-07 03:38 25.20992 74.61476 35864 ft 454 kts 235°
2026-05-07 03:39 25.16750 74.56307 35862 ft 454 kts 235°
2026-05-07 03:39 25.12504 74.51139 35829 ft 455 kts 234°
2026-05-07 03:40 25.08262 74.45977 35853 ft 454 kts 234°
2026-05-07 03:40 25.04709 74.41656 35872 ft 454 kts 234°
2026-05-07 03:41 25.00467 74.36501 35872 ft 454 kts 234°
2026-05-07 03:41 24.96227 74.31352 35878 ft 454 kts 234°
2026-05-07 03:42 24.92012 74.26241 35872 ft 454 kts 234°
2026-05-07 03:42 24.87755 74.21084 35875 ft 455 kts 234°
2026-05-07 03:43 24.83496 74.15932 35880 ft 455 kts 234°
2026-05-07 03:43 24.79236 74.10782 35876 ft 455 kts 234°
2026-05-07 03:44 24.74975 74.05637 35892 ft 455 kts 234°
2026-05-07 03:44 24.70713 74.00497 35904 ft 454 kts 234°
2026-05-07 03:45 24.66539 73.95466 35907 ft 455 kts 234°
2026-05-07 03:45 24.62260 73.90335 35913 ft 456 kts 232°
2026-05-07 03:46 24.57279 73.85872 35888 ft 466 kts 223°
2026-05-07 03:46 24.52008 73.81722 35897 ft 466 kts 223°
2026-05-07 03:47 24.46769 73.77522 35888 ft 466 kts 223°
2026-05-07 03:47 24.41564 73.73286 35880 ft 465 kts 223°
2026-05-07 03:48 24.36397 73.69085 35889 ft 466 kts 223°
2026-05-07 03:48 24.31209 73.64826 35869 ft 466 kts 224°
2026-05-07 03:49 24.26043 73.60530 35871 ft 466 kts 224°
2026-05-07 03:49 24.20878 73.56236 35882 ft 466 kts 224°
2026-05-07 03:50 24.15705 73.51951 35879 ft 467 kts 224°
2026-05-07 03:50 24.10519 73.47664 35863 ft 467 kts 224°
2026-05-07 03:51 24.05344 73.43392 35859 ft 461 kts 224°
2026-05-07 03:51 24.02825 73.41322 35858 ft 445 kts 224°
2026-05-07 03:51 24.00390 73.39325 35858 ft 433 kts 224°
2026-05-07 03:52 23.95610 73.35382 35867 ft 429 kts 224°
2026-05-07 03:52 23.90859 73.31459 35875 ft 427 kts 224°
2026-05-07 03:53 23.86116 73.27551 35868 ft 427 kts 224°
2026-05-07 03:53 23.81374 73.23652 35880 ft 427 kts 224°
2026-05-07 03:54 23.76594 73.19724 35839 ft 430 kts 224°
2026-05-07 03:54 23.71834 73.15817 35861 ft 432 kts 224°
2026-05-07 03:55 23.66981 73.11839 35860 ft 434 kts 224°
2026-05-07 03:55 23.62169 73.07899 35856 ft 436 kts 224°
2026-05-07 03:56 23.57301 73.03918 35860 ft 438 kts 224°
2026-05-07 03:56 23.52449 72.99953 35850 ft 438 kts 224°
2026-05-07 03:57 23.47648 72.96033 35852 ft 438 kts 224°
2026-05-07 03:57 23.42778 72.92061 35823 ft 437 kts 223°
2026-05-07 03:58 23.37921 72.88103 35839 ft 436 kts 223°
2026-05-07 03:58 23.33149 72.84224 35528 ft 421 kts 223°
2026-05-07 03:58 23.30832 72.82342 35237 ft 414 kts 224°
2026-05-07 03:59 23.28532 72.80470 34850 ft 411 kts 224°
2026-05-07 03:59 23.26251 72.78614 34480 ft 408 kts 224°
2026-05-07 03:59 23.23983 72.76768 34079 ft 407 kts 224°
2026-05-07 03:59 23.21725 72.74932 33665 ft 405 kts 224°
2026-05-07 04:00 23.19474 72.73102 33238 ft 403 kts 224°
2026-05-07 04:00 23.17240 72.71288 32846 ft 400 kts 224°
2026-05-07 04:00 23.15016 72.69483 32455 ft 398 kts 225°
2026-05-07 04:00 23.12807 72.67691 32078 ft 395 kts 225°
2026-05-07 04:01 23.10607 72.65908 31708 ft 393 kts 225°
2026-05-07 04:01 23.08502 72.64055 31305 ft 384 kts 233°
2026-05-07 04:01 23.06773 72.61904 30912 ft 375 kts 241°
2026-05-07 04:01 23.05404 72.59552 30298 ft 371 kts 251°
2026-05-07 04:02 23.04281 72.56990 29846 ft 371 kts 253°
2026-05-07 04:02 23.03199 72.54455 29415 ft 369 kts 253°
2026-05-07 04:02 23.02141 72.51972 29012 ft 366 kts 252°
2026-05-07 04:02 23.01074 72.49473 28619 ft 363 kts 252°
2026-05-07 04:03 23.00012 72.46998 28242 ft 361 kts 252°
2026-05-07 04:03 22.98956 72.44541 27877 ft 358 kts 252°
2026-05-07 04:03 22.97906 72.42108 27504 ft 356 kts 252°
2026-05-07 04:03 22.96859 72.39684 27146 ft 353 kts 252°
2026-05-07 04:04 22.95819 72.37279 26795 ft 351 kts 251°
2026-05-07 04:04 22.94783 72.34886 26441 ft 349 kts 251°
2026-05-07 04:04 22.93757 72.32517 26208 ft 345 kts 251°
2026-05-07 04:04 22.92739 72.30172 25973 ft 343 kts 251°
2026-05-07 04:05 22.91719 72.27816 25752 ft 348 kts 251°
2026-05-07 04:05 22.90686 72.25426 25516 ft 352 kts 251°
2026-05-07 04:05 22.89639 72.23010 25296 ft 354 kts 251°
2026-05-07 04:05 22.88591 72.20600 25069 ft 353 kts 251°
2026-05-07 04:06 22.87531 72.18163 24840 ft 352 kts 250°
2026-05-07 04:06 22.86488 72.15769 24615 ft 351 kts 250°
2026-05-07 04:06 22.85445 72.13374 24397 ft 350 kts 250°
2026-05-07 04:06 22.84408 72.10993 24183 ft 349 kts 250°
2026-05-07 04:07 22.83372 72.08616 23965 ft 348 kts 250°
2026-05-07 04:07 22.82340 72.06247 23751 ft 347 kts 250°
2026-05-07 04:07 22.81322 72.03913 23541 ft 347 kts 250°
2026-05-07 04:07 22.80279 72.01522 23297 ft 346 kts 249°
2026-05-07 04:08 22.79302 71.99285 23042 ft 345 kts 249°
2026-05-07 04:08 22.78265 71.96909 22784 ft 344 kts 249°
2026-05-07 04:08 22.77243 71.94570 22525 ft 343 kts 249°
2026-05-07 04:08 22.76238 71.92271 22274 ft 342 kts 249°
2026-05-07 04:09 22.75224 71.89951 22013 ft 342 kts 249°
2026-05-07 04:09 22.74208 71.87629 21766 ft 341 kts 249°
2026-05-07 04:09 22.73191 71.85306 21515 ft 341 kts 249°
2026-05-07 04:09 22.72177 71.82989 21270 ft 340 kts 248°
2026-05-07 04:10 22.71163 71.80676 21030 ft 340 kts 248°
2026-05-07 04:10 22.70150 71.78364 20782 ft 339 kts 248°
2026-05-07 04:10 22.69143 71.76068 20521 ft 336 kts 248°
2026-05-07 04:10 22.68141 71.73787 20209 ft 334 kts 248°
2026-05-07 04:11 22.67147 71.71521 19883 ft 333 kts 248°
2026-05-07 04:11 22.66156 71.69264 19546 ft 332 kts 247°
2026-05-07 04:11 22.65163 71.67003 19194 ft 332 kts 247°
2026-05-07 04:11 22.64172 71.64747 18846 ft 332 kts 246°
2026-05-07 04:12 22.63179 71.62489 18489 ft 332 kts 247°
2026-05-07 04:12 22.62184 71.60229 18145 ft 333 kts 246°
2026-05-07 04:12 22.61189 71.57967 17744 ft 333 kts 246°
2026-05-07 04:12 22.60195 71.55711 17401 ft 331 kts 246°
2026-05-07 04:13 22.59206 71.53467 17056 ft 330 kts 246°
2026-05-07 04:13 22.58221 71.51230 16723 ft 329 kts 246°
2026-05-07 04:13 22.57239 71.49003 16373 ft 327 kts 246°
2026-05-07 04:13 22.56259 71.46781 15875 ft 331 kts 245°
2026-05-07 04:14 22.55266 71.44530 15409 ft 329 kts 246°
2026-05-07 04:14 22.54290 71.42321 15028 ft 321 kts 245°
2026-05-07 04:14 22.53340 71.40172 14696 ft 313 kts 245°
2026-05-07 04:14 22.52400 71.38045 14369 ft 313 kts 245°
2026-05-07 04:15 22.51462 71.35924 14037 ft 313 kts 244°
2026-05-07 04:15 22.50521 71.33796 13698 ft 313 kts 244°
2026-05-07 04:15 22.49584 71.31680 13347 ft 312 kts 244°
2026-05-07 04:15 22.48653 71.29576 13002 ft 311 kts 244°
2026-05-07 04:16 22.47722 71.27476 12677 ft 310 kts 244°
2026-05-07 04:16 22.46793 71.25378 12340 ft 309 kts 244°
2026-05-07 04:16 22.45866 71.23288 12015 ft 308 kts 244°
2026-05-07 04:16 22.44951 71.21224 11675 ft 308 kts 244°
2026-05-07 04:17 22.44028 71.19144 11338 ft 307 kts 244°
2026-05-07 04:17 22.43110 71.17075 11017 ft 307 kts 244°
2026-05-07 04:17 22.42189 71.15000 10689 ft 306 kts 244°
2026-05-07 04:17 22.41268 71.12927 10392 ft 305 kts 244°
2026-05-07 04:18 22.40353 71.10866 10090 ft 304 kts 244°
2026-05-07 04:18 22.39448 71.08830 9936 ft 297 kts 243°
2026-05-07 04:18 22.38560 71.06832 9666 ft 295 kts 243°
2026-05-07 04:18 22.37674 71.04841 9390 ft 293 kts 244°
2026-05-07 04:19 22.37131 71.02744 9121 ft 290 kts 268°
2026-05-07 04:19 22.37478 71.00627 8833 ft 287 kts 295°
2026-05-07 04:19 22.38580 70.98972 8545 ft 284 kts 319°
2026-05-07 04:19 22.39980 70.97463 8146 ft 287 kts 314°
2026-05-07 04:20 22.41595 70.96237 7749 ft 285 kts 344°
2026-05-07 04:20 22.43528 70.96157 7470 ft 279 kts 17°
2026-05-07 04:20 22.45135 70.97222 7230 ft 272 kts 51°
2026-05-07 04:21 22.45573 71.00975 6792 ft 261 kts 109°
2026-05-07 04:21 22.45180 71.02878 6542 ft 259 kts 95°
2026-05-07 04:21 22.45014 71.04815 6290 ft 258 kts 95°
2026-05-07 04:21 22.44844 71.06749 6014 ft 258 kts 95°
2026-05-07 04:22 22.44788 71.08681 5716 ft 259 kts 79°
2026-05-07 04:22 22.45539 71.10420 5448 ft 258 kts 49°
2026-05-07 04:22 22.46945 71.11597 5186 ft 257 kts 26°
2026-05-07 04:22 22.48665 71.12094 4935 ft 257 kts
2026-05-07 04:23 22.50448 71.12217 4668 ft 257 kts
2026-05-07 04:23 22.52231 71.12333 4395 ft 256 kts
2026-05-07 04:23 22.53785 71.13110 4349 ft 246 kts 47°
2026-05-07 04:23 22.54521 71.14718 4266 ft 238 kts 83°
2026-05-07 04:24 22.54400 71.16408 4181 ft 222 kts 110°
2026-05-07 04:24 22.53618 71.17744 4078 ft 204 kts 138°
2026-05-07 04:24 22.52449 71.18482 4002 ft 189 kts 164°
2026-05-07 04:24 22.51169 71.18587 3818 ft 183 kts 189°
2026-05-07 04:25 22.49972 71.18146 3660 ft 186 kts 213°
2026-05-07 04:25 22.49007 71.17209 3460 ft 188 kts 223°
2026-05-07 04:25 22.48089 71.16200 3242 ft 186 kts 226°
2026-05-07 04:25 22.47230 71.15187 3003 ft 180 kts 227°
2026-05-07 04:26 22.46388 71.14175 2776 ft 181 kts 228°
2026-05-07 04:26 22.45546 71.13161 2576 ft 179 kts 229°
2026-05-07 04:26 22.44999 71.12503 2392 ft 174 kts 229°
2026-05-07 04:26 22.43974 71.11268 2098 ft 157 kts 230°
2026-05-07 04:27 22.43277 71.10429 1919 ft 145 kts 230°
2026-05-07 04:27 22.42834 71.09896 1825 ft 144 kts 231°
2026-05-07 04:27 22.42137 71.09055 1630 ft 152 kts 230°
2026-05-07 04:27 22.41431 71.08206 1429 ft 148 kts 230°
2026-05-07 04:28 22.40474 71.07057 1166 ft 162 kts 229°
2026-05-07 04:28 22.39954 71.06462 957 ft 159 kts 228°
2026-05-07 04:28 22.39272 71.05578 783 ft 150 kts 232°
2026-05-07 04:28 22.38572 71.04779 661 ft 139 kts 233°
2026-05-07 04:29 22.38046 71.04137 656 ft 83 kts 227°
2026-05-07 04:29 22.37806 71.03851 660 ft 21 kts 226°
2026-05-07 04:29 22.37757 71.03794 660 ft 12 kts 227°
2026-05-07 04:29 22.37685 71.03706 659 ft 19 kts 229°
2026-05-07 04:30 22.37581 71.03580 658 ft 25 kts 228°
2026-05-07 04:30 22.37449 71.03425 657 ft 31 kts 229°